FLOCK 2'-10

Last updated on Tue Aug 02 2016 17:39:13 GMT+0000 (Coordinated Universal Time)

1 41612U 16040P 16215.41996591 .00002970 00000-0 14116-3 0 9998 2 41612 97.5056 274.3629 0013602 115.5711 244.6931 15.19927603 6215
UTC large
Height (km)
Speed (km/s)
/
Latitude / Longitude
Inclination (degrees)
Orbital Period (minutes)
Azimuth
Elevation
Range (km)
Doppler Factor

Next 0 passes for location: London (51.5072 / 0.1276)

Sorry there are no passes over London.